sat.trackr.live / text

‹ back to catalog

UNKNOWN

NORAD 82873

UNKNOWN UNKNOWN UNKNOWN

§ Identity

Operator
Country
Launch date
Launch site
Launch vehicle
Mass (kg)
RCS (m²)

External: N2YO · Heavens-Above

§ Orbital elements

Epoch: 2026-05-23T17:24:24.071040Z

Period
101.01 min
Inclination
99.9945°
Eccentricity
0.0036575
Mean motion
14.25606113 rev/d
Perigee alt
780.2 km
Apogee alt
832.7 km
Semi-major
7,184.6 km
B*
7.4816e-4
RAAN
65.1954°
Arg perigee
190.8624°
Mean anomaly
169.1765°
Rev number
64,430

§ Raw data

UNKNOWN1 82873U          26143.72527860  .00001729  00000+0  74816-3 0  99982 82873  99.9945  65.1954 0036575 190.8624 169.1765 14.25606113644302

JSON: /api/v1/satellites/82873 · /tle

For live sub-satellite position, see the globe view (requires WebGL).

§ Visibility from observer

Set your observer location to see the next 7 days of passes ≥ 10°. The values pass through the URL so the page stays shareable.

No JS? Fill the form by hand. The geolocation button needs JavaScript.